ORBCOMM FM14 [+]

Last updated on July 6, 2021, 3:36 p.m. UTC

1 25419U 98046G   21187.25454477  .00000100  00000-0  86694-4 0  9993
2 25419  44.9976 141.5405 0004096 291.3108 207.6941 14.33208031197309
UTC
Height (km)
Latitude
Longitude
Inclination
Orbital Period
UTC large
Height (km)
Speed (km/s)
/
Latitude / Longitude
Inclination (degrees)
Orbital Period (minutes)
Azimuth
Elevation
Range (km)
Doppler Factor
iOS Compass Heading
iOS Angle